Retour au catalogue

FENGYUN 1C DEB

ActifPO
NORAD 32177·DEBRIS·🇨🇳 China

Lancé May 10, 1999 depuis Taiyuan Satellite Launch Center

Loading…

Prochains Passages (prochaines 24 heures)

TLE

FraisSource: Space-Track

Époque: Sep 11, 2026, 07:47 UTC

1 32177U 99025CTX 26254.32490322  .00002815  00000-0  60217-3 0  9994
2 32177  99.0299 291.9512 0046709 297.6634  61.9826 14.59016725750107

Suivez FENGYUN 1C DEB en temps réel avec AllMySat

Download on the App Store